Hourly Data Report for October 22, 2013

All times are specified in Local Standard Time (LST). Add 1 hour to adjust for Daylight Saving Time where and when it is observed.

FORT LIARD
NORTHWEST TERRITORIES

60°14'00.000" N
123°28'00.000" W
213.40 m
2201579
71497
WJL

Download Data

Hourly Data (October 2013)
Hourly Data Report for October 22, 2013
Temp Definition
°C
Dew Point Temp Definition
°C
Rel Hum Definition
%
Wind Dir Definition
10's deg

Wind Spd Definition
km/h
Visibility Definition
km
Stn Press Definition
kPa
Hmdx Definition


Wind Chill Definition


Weather Definition


TIME
00:00 -2.1 -2.7 96   0   99.25     LegendNANA
01:00 -2.5 -3.3 94   0   99.34     LegendNANA
02:00 -2.5 -3.2 95   0   99.39     LegendNANA
03:00 -2.6 -3.2 96 20 2   99.45   -3 LegendNANA
04:00 -3.5 -4.5 93   0   99.52     LegendNANA
05:00 -2.4 -3.0 96 20 4   99.58   -4 LegendNANA
06:00 -2.7 -3.2 96 21 6   99.68   -5 LegendNANA
07:00 -3.0 -3.6 96   0   99.66     LegendNANA
08:00 -3.0 -3.7 95 22 4   99.69   -5 LegendNANA
09:00 -2.7 -3.4 95 21 7   99.73   -6 LegendNANA
10:00 0.0 -1.5 90 21 11   99.75   -4 LegendNANA
11:00 0.9 -1.2 86 21 15   99.77     LegendNANA
12:00 3.4 -0.6 75 22 11   99.75     LegendNANA
13:00 5.4 -0.4 66 21 11   99.73     LegendNANA
14:00 7.3 -0.9 56 22 9   99.73     LegendNANA
15:00 9.0 -0.6 51 23 6   99.73     LegendNANA
16:00 9.4 -0.5 50   0   99.76     LegendNANA
17:00 6.3 1.0 69 3 7   99.80     LegendNANA
18:00 -0.2 -2.1 87 8 4   99.84   -1 LegendNANA
19:00 -1.3 -2.4 92   0   99.87     LegendNANA
20:00 -2.9 -3.8 93 8 6   99.94   -5 LegendNANA
21:00 -2.6 -3.2 96 8 2   99.98   -3 LegendNANA
22:00 -3.2 -3.8 96   0   100.03     LegendNANA
23:00 -3.8 -4.3 96   0   100.07     LegendNANA

Notes on Data Quality.

Legend

  • E = Estimated
  • M = Missing
  • NA = Not Available
  • ‡ = Partner data that is not subject to review by the National Climate Archives
Date modified: